When you browse on this site, cookies collect data to enhance your experience and personalize the content and advertising you see.
Visit our Privacy Policy to learn more. By continuing to use the site, you agree to this use of cookies and data.
  • In Hungary
  • List of Countries
  • For 7 days
  • Water Temperature
  • Weather Map
  • News
  • Weather Widgets
  • user-avatar
    Login

    Hourly Weather Novostroyka

    Today, 26 January, Sunday

    Time Temperature Precipitation Wind Pressure Humidity
    00:00 -10°C° 0 mm 3 mps 741 mmHg 92%
    01:00 -10°C° 0 mm 3 mps 741 mmHg 92%
    02:00 -12°C° 0 mm 4 mps 742 mmHg 92%
    03:00 -12°C° 0 mm 4 mps 742 mmHg 92%
    04:00 -12°C° 0.1 mm 4 mps 742 mmHg 92%
    05:00 -12°C° 0.1 mm 4 mps 742 mmHg 91%
    06:00 -14°C° 0.1 mm 4 mps 743 mmHg 91%
    07:00 -15°C° 0 mm 4 mps 743 mmHg 92%
    08:00 -16°C° 0 mm 4 mps 744 mmHg 92%
    09:00 -17°C° 0 mm 4 mps 744 mmHg 92%
    10:00 -16°C° 0 mm 4 mps 744 mmHg 91%
    11:00 -16°C° 0 mm 4 mps 745 mmHg 90%
    12:00 -16°C° 0 mm 4 mps 745 mmHg 89%
    13:00 -17°C° 0 mm 5 mps 746 mmHg 88%
    14:00 -17°C° 0 mm 5 mps 746 mmHg 87%
    15:00 -15°C° 0 mm 5 mps 746 mmHg 86%
    16:00 -15°C° 0 mm 5 mps 746 mmHg 85%
    17:00 -15°C° 0 mm 5 mps 746 mmHg 85%
    18:00 -15°C° 0 mm 5 mps 746 mmHg 85%
    19:00 -15°C° 0.1 mm 5 mps 746 mmHg 87%
    20:00 -15°C° 0.1 mm 5 mps 746 mmHg 88%
    21:00 -15°C° 0.1 mm 5 mps 747 mmHg 90%
    22:00 -17°C° 0 mm 5 mps 747 mmHg 91%
    23:00 -16°C° 0 mm 4 mps 747 mmHg 91%

    Tomorrow, 27 January, Monday

    Time Temperature Precipitation Wind Pressure Humidity
    00:00 -16°C° 0 mm 4 mps 747 mmHg 91%
    01:00 -16°C° 0 mm 4 mps 747 mmHg 90%
    02:00 -16°C° 0 mm 4 mps 746 mmHg 89%
    03:00 -16°C° 0 mm 4 mps 746 mmHg 89%
    04:00 -16°C° 0 mm 4 mps 746 mmHg 87%
    05:00 -15°C° 0 mm 4 mps 746 mmHg 85%
    06:00 -15°C° 0 mm 4 mps 745 mmHg 83%
    07:00 -15°C° 0 mm 5 mps 745 mmHg 82%
    08:00 -14°C° 0 mm 5 mps 744 mmHg 81%
    09:00 -14°C° 0 mm 5 mps 744 mmHg 80%
    10:00 -13°C° 0 mm 5 mps 743 mmHg 80%
    11:00 -12°C° 0 mm 6 mps 743 mmHg 80%
    12:00 -12°C° 0 mm 7 mps 742 mmHg 81%
    13:00 -11°C° 0.2 mm 7 mps 742 mmHg 83%
    14:00 -10°C° 0.2 mm 6 mps 741 mmHg 86%
    15:00 -10°C° 0.2 mm 6 mps 741 mmHg 89%
    16:00 -9°C° 0.2 mm 6 mps 741 mmHg 89%
    17:00 -9°C° 0.2 mm 6 mps 740 mmHg 89%
    18:00 -9°C° 0.2 mm 6 mps 740 mmHg 89%
    19:00 -8°C° 0.2 mm 6 mps 740 mmHg 90%
    20:00 -8°C° 0.2 mm 6 mps 739 mmHg 91%
    21:00 -8°C° 0.2 mm 6 mps 739 mmHg 92%
    22:00 -6°C° 0.3 mm 6 mps 739 mmHg 92%
    23:00 -6°C° 0.3 mm 6 mps 739 mmHg 92%

    Day after tomorrow, 28 January, Tuesday

    Time Temperature Precipitation Wind Pressure Humidity
    00:00 -6°C° 0.3 mm 6 mps 739 mmHg 92%
    01:00 -6°C° 0.1 mm 6 mps 739 mmHg 92%
    02:00 -6°C° 0.1 mm 5 mps 739 mmHg 92%
    03:00 -5°C° 0.1 mm 4 mps 740 mmHg 92%
    04:00 -7°C° 0.1 mm 4 mps 740 mmHg 90%
    05:00 -8°C° 0.1 mm 4 mps 740 mmHg 88%
    06:00 -8°C° 0.1 mm 4 mps 740 mmHg 86%
    07:00 -9°C° 0 mm 4 mps 741 mmHg 88%
    08:00 -10°C° 0 mm 4 mps 741 mmHg 90%
    09:00 -10°C° 0 mm 3 mps 742 mmHg 91%
    10:00 -10°C° 0 mm 4 mps 742 mmHg 91%
    11:00 -9°C° 0 mm 4 mps 742 mmHg 90%
    12:00 -8°C° 0 mm 5 mps 742 mmHg 89%
    13:00 -8°C° 0.1 mm 5 mps 742 mmHg 89%
    14:00 -10°C° 0.1 mm 5 mps 742 mmHg 89%
    15:00 -10°C° 0.1 mm 5 mps 742 mmHg 89%
    16:00 -10°C° 0.1 mm 5 mps 743 mmHg 90%
    17:00 -11°C° 0.1 mm 5 mps 743 mmHg 90%
    18:00 -12°C° 0.1 mm 5 mps 743 mmHg 91%
    19:00 -11°C° 0.1 mm 4 mps 744 mmHg 92%
    20:00 -11°C° 0.1 mm 4 mps 744 mmHg 92%
    21:00 -12°C° 0.1 mm 4 mps 744 mmHg 93%
    22:00 -12°C° 0.1 mm 3 mps 744 mmHg 93%
    23:00 -13°C° 0.1 mm 3 mps 744 mmHg 93%

    29 January, Wednesday

    Time Temperature Precipitation Wind Pressure Humidity
    00:00 -13°C° 0.1 mm 3 mps 745 mmHg 94%
    01:00 -13°C° 0 mm 2 mps 745 mmHg 94%
    02:00 -13°C° 0 mm 2 mps 745 mmHg 95%
    03:00 -12°C° 0 mm 1 mps 745 mmHg 96%
    04:00 -12°C° 0 mm 1 mps 745 mmHg 96%
    05:00 -13°C° 0 mm 1 mps 745 mmHg 96%
    06:00 -13°C° 0 mm 1 mps 745 mmHg 96%
    07:00 -14°C° 0 mm 1 mps 746 mmHg 96%
    08:00 -16°C° 0 mm 2 mps 746 mmHg 96%
    09:00 -17°C° 0 mm 2 mps 747 mmHg 96%
    10:00 -18°C° 0 mm 2 mps 747 mmHg 95%
    11:00 -19°C° 0 mm 3 mps 748 mmHg 94%
    12:00 -21°C° 0 mm 3 mps 748 mmHg 93%
    13:00 -21°C° 0 mm 3 mps 749 mmHg 93%
    14:00 -21°C° 0 mm 3 mps 750 mmHg 93%
    15:00 -22°C° 0 mm 4 mps 751 mmHg 93%
    16:00 -23°C° 0.1 mm 4 mps 752 mmHg 93%
    17:00 -23°C° 0.1 mm 4 mps 752 mmHg 93%
    18:00 -23°C° 0.1 mm 4 mps 753 mmHg 94%
    19:00 -24°C° 0.1 mm 4 mps 754 mmHg 94%
    20:00 -24°C° 0.1 mm 4 mps 755 mmHg 94%
    21:00 -25°C° 0.1 mm 4 mps 756 mmHg 94%
    22:00 -25°C° 0 mm 4 mps 756 mmHg 94%
    23:00 -26°C° 0 mm 4 mps 757 mmHg 94%

    30 January, Thursday

    Time Temperature Precipitation Wind Pressure Humidity
    00:00 -26°C° 0 mm 4 mps 757 mmHg 94%
    01:00 -26°C° 0 mm 3 mps 758 mmHg 95%
    02:00 -26°C° 0 mm 3 mps 758 mmHg 95%
    03:00 -26°C° 0 mm 3 mps 759 mmHg 95%
    04:00 -27°C° 0 mm 3 mps 759 mmHg 95%
    05:00 -27°C° 0 mm 3 mps 760 mmHg 95%
    06:00 -27°C° 0 mm 3 mps 760 mmHg 95%
    07:00 -27°C° 0 mm 3 mps 761 mmHg 95%
    08:00 -27°C° 0 mm 3 mps 761 mmHg 95%
    09:00 -29°C° 0 mm 3 mps 762 mmHg 95%
    10:00 -29°C° 0 mm 3 mps 762 mmHg 95%
    11:00 -29°C° 0 mm 3 mps 762 mmHg 95%
    12:00 -29°C° 0 mm 3 mps 762 mmHg 95%
    13:00 -29°C° 0 mm 3 mps 762 mmHg 95%
    14:00 -29°C° 0 mm 3 mps 763 mmHg 95%
    15:00 -27°C° 0 mm 3 mps 763 mmHg 95%
    16:00 -27°C° 0 mm 3 mps 762 mmHg 94%
    17:00 -29°C° 0 mm 4 mps 762 mmHg 94%
    18:00 -29°C° 0 mm 4 mps 762 mmHg 94%
    19:00 -29°C° 0 mm 4 mps 762 mmHg 93%
    20:00 -27°C° 0 mm 4 mps 762 mmHg 93%
    21:00 -27°C° 0 mm 4 mps 761 mmHg 92%
    22:00 -26°C° 0.1 mm 4 mps 761 mmHg 93%
    23:00 -26°C° 0.1 mm 4 mps 760 mmHg 94%

    31 January, Friday

    Time Temperature Precipitation Wind Pressure Humidity
    00:00 -26°C° 0.1 mm 4 mps 760 mmHg 96%
    01:00 -26°C° 0.2 mm 4 mps 759 mmHg 96%
    02:00 -25°C° 0.2 mm 4 mps 759 mmHg 96%
    03:00 -24°C° 0.2 mm 3 mps 759 mmHg 96%
    04:00 -24°C° 0.2 mm 3 mps 758 mmHg 97%
    05:00 -23°C° 0.2 mm 2 mps 758 mmHg 97%
    06:00 -23°C° 0.2 mm 2 mps 758 mmHg 97%
    07:00 -23°C° 0.1 mm 2 mps 758 mmHg 98%
    08:00 -21°C° 0.1 mm 1 mps 758 mmHg 98%
    09:00 -21°C° 0.1 mm 1 mps 758 mmHg 98%
    10:00 -21°C° 0 mm 1 mps 758 mmHg 96%
    11:00 -20°C° 0 mm 1 mps 758 mmHg 94%
    12:00 -19°C° 0 mm 1 mps 759 mmHg 92%
    13:00 -19°C° 0 mm 1 mps 759 mmHg 92%
    14:00 -19°C° 0 mm 1 mps 759 mmHg 92%
    15:00 -19°C° 0 mm 1 mps 760 mmHg 92%
    16:00 -21°C° 0 mm 1 mps 760 mmHg 94%
    17:00 -23°C° 0 mm 1 mps 761 mmHg 96%
    18:00 -25°C° 0 mm 0 mps 761 mmHg 99%
    19:00 -26°C° 0 mm 0 mps 762 mmHg 99%
    20:00 -26°C° 0 mm 0 mps 762 mmHg 99%
    21:00 -27°C° 0 mm 0 mps 763 mmHg 99%
    22:00 -27°C° 0 mm 0 mps 763 mmHg 99%
    23:00 -27°C° 0 mm 0 mps 763 mmHg 98%
    Show more